FloripaSat 1
1 44885U 19093G   25169.82945955  .00004116  00000-0  34818-3 0  9990
2 44885  97.8150 257.4497 0010759 171.7297 188.4104 14.98560018298136
RS-44
1 44909U 19096E   25169.38816937  .00000010  00000-0  16627-5 0  9997
2 44909  82.5208 221.4262 0216251 275.0206  82.6244 12.79741237255811
UPMSat 2
1 46276U 20061E   25169.80455386  .00065229  00000-0  54280-3 0  9992
2 46276  97.2428 244.5042 0002107 159.6146 200.5201 15.69934748266912
SALSAT
1 46495U 20068K   25169.48685383  .00005763  00000-0  24893-3 0  9992
2 46495  97.8608 147.9271 0012824 126.5465 233.6952 15.22852004259886
CubeSX-Sirius-HSE
1 47951U 21022V   25157.62701764  .07883385  25648-5  89537-3 0  9993
2 47951  97.4004  72.1904 0010275 223.9924 136.0557 16.36879307233400
CubeSX-HSE
1 47952U 21022W   25157.69972699  .06655353  25454-5  93288-3 0  9992
2 47952  97.3980  72.5414 0010307 219.3637 140.6911 16.34906352233436
GRBAlpha
1 47959U 21022AD  25160.45426279  .07940347  25506-5  90589-3 0  9995
2 47959  97.3899  75.6235 0011032 227.2558 132.7812 16.36806138232695
TUBIN
1 48900U 21059X   25169.82694396  .00037379  00000-0  44007-3 0  9995
2 48900  97.6757 339.8103 0003883 184.4716 175.6507 15.61314756221481
LEDSAT
1 49069U 21073D   25169.47142215  .00063044  00000-0  72055-3 0  9999
2 49069  97.3885 251.3877 0008283  52.5664 307.6346 15.61938761212823
CUTE
1 49263U 21088D   25169.47800342  .00011719  00000-0  23131-3 0  9996
2 49263  97.4503 245.9923 0007968 198.2993 161.7972 15.47295617205804
TeikyoSat 4
1 49396U 21102B   25169.84291753  .00002026  00000-0  13651-3 0  9998
2 49396  97.4095 207.9368 0014248 101.0220 259.2612 15.07681038197943
Z-Sat
1 49399U 21102E   25169.86887912  .00003892  00000-0  21404-3 0  9998
2 49399  97.3792 211.1151 0019676  74.1191 286.2208 15.14485650198383
KOSEN 1
1 49402U 21102H   25169.68763103  .00005718  00000-0  26446-3 0  9998
2 49402  97.3698 214.4231 0016985  52.1013 308.1755 15.20409366198677
HO-113
1 50466U 21131B   25169.85818780  .00000449  00000-0  15401-3 0  9998
2 50466  98.5106 259.1655 0005436 106.3305 253.8482 14.40825432182782
Foresail-1
1 52766U 22057AL  25168.40564054  .00713776  26951-3  85795-3 0  9996
2 52766  97.6070 321.6183 0010827 250.9658 109.0452 16.08231905171155
SNUGLITE 2
1 52899U 22065F   25169.37990554  .00000968  00000-0  19694-3 0  9998
2 52899  98.1700 311.2680 0008946  87.5026 272.7200 14.63233612157774
UmKA 1 (RS40S)
1 57172U 23091G   25169.85111821  .00004272  00000-0  22909-3 0  9997
2 57172  97.5573 225.1850 0012885 305.8367  54.1667 15.15451321108881
CubeBel-2 (EU11S)
1 57175U 23091K   25169.85650415  .00007327  00000-0  34794-3 0  9996
2 57175  97.5571 226.3932 0010659 314.3936  45.6425 15.19492214108966
VERONIKA
1 58261U 23174F   25169.81677173  .00150955  00000-0  10868-2 0  9992
2 58261  97.4100 256.5639 0001391 303.5244  56.5887 15.73130509 90132
ENSO
1 58470U 23185J   25169.83160755  .00047714  00000-0  66345-3 0  9991
2 58470  97.3727 245.2528 0006487  59.8718 300.3179 15.56826204 86479
EIRSAT-1
1 58472U 23185L   25169.83194291  .00099507  00000-0  84286-3 0  9996
2 58472  97.3674 247.3214 0003145  73.2078 286.9529 15.69385145 86616
SONATE-2
1 59112U 24043Q   25169.61575097  .00013404  00000-0  38311-3 0  9995
2 59112  97.5144 300.9766 0012190  85.1386 275.1249 15.36042786 71724
MO-122
1 60209U 24125G   25169.30257600  .00014833  00000-0  41694-3 0  9993
2 60209  97.2788  20.8240 0020329 105.7806 254.5682 15.36396314 53291
GRBBeta
1 60237U 24128C   25169.65276755  .00003585  00000-0  27490-3 0  9997
2 60237  61.9924  47.9226 0052662  59.5909 301.0371 15.02711366 51563
Curium One
1 60242U 24128H   25169.07634605  .00006604  00000-0  46069-3 0  9999
2 60242  61.9821  48.1009 0052489  55.6717 304.9326 15.05236911 51516
ROBUSTA-3A
1 60243U 24128J   25169.08165731  .00006549  00000-0  46337-3 0  9996
2 60243  61.9890  48.9385 0051330  53.3366 307.2428 15.04768724 51506
CatSat
1 60246U 24125J   25169.32212891  .00008782  00000-0  29131-3 0  9997
2 60246  97.2586  19.9584 0043811  64.4337 296.1424 15.30537942 51325
HYPERVIEW-1G (RS66S)
1 61772U 24199AP  25169.86372189  .00017225  00000-0  49420-3 0  9994
2 61772  97.3526  38.7036 0014563 152.8739 207.3269 15.35829912 78388
AO-123
1 61781U 24199AY  25169.87664205  .00005237  00000-0  19094-3 0  9992
2 61781  97.3540  37.5043 0016416 159.0431 201.1485 15.28476335 78309
ZIMSAT 2
1 61783U 24199BA  25169.88399881  .00030835  00000-0  73837-3 0  9997
2 61783  97.3502  39.4083 0014608 149.8496 210.3595 15.41274687 81582
HADES-R (SO-124)
1 62690U 25009CK  25169.18074995  .00029446  00000-0  10228-2 0  9995
2 62690  97.4082 249.9554 0003658  88.1611 272.0049 15.29705653 23462
HYDRA-T
1 62692U 25009CM  25169.49176400  .00029530  00000-0  10167-2 0  9991
2 62692  97.4085 250.3018 0003225  86.0577 274.1032 15.29993702 23511
JINJUSat 1B
1 63210U 25052A   25169.47840668  .00008422  00000-0  38468-3 0  9990
2 63210  97.4407  63.4889 0002473 308.2138  51.8874 15.20827313 14600
NUSHSAT 1
1 63211U 25052B   25169.66931418  .00010130  00000-0  45860-3 0  9999
2 63211  97.4397  63.6807 0002622 316.3633  43.7394 15.21078144 14638
TEVEL2-4
1 63213U 25052D   25169.68470822  .00009399  00000-0  42957-3 0  9999
2 63213  97.4314  63.5587 0002379 350.6625   9.4566 15.20774301 14631
TEVEL2-5
1 63214U 25052E   25169.48801167  .00008679  00000-0  39722-3 0  9994
2 63214  97.4316  63.3633 0002405 351.3366   8.7828 15.20749624 14604
TEVEL2-6
1 63215U 25052F   25169.68778608  .00009334  00000-0  42733-3 0  9995
2 63215  97.4315  63.5561 0002450 351.0119   9.1072 15.20714057 14630
TEVEL2-1
1 63217U 25052H   25169.23948793  .00009264  00000-0  42698-3 0  9994
2 63217  97.4290  63.0555 0003143   5.2541 354.8727 15.20486533 14563
TEVEL2-2
1 63218U 25052J   25169.70046013  .00009659  00000-0  44489-3 0  9999
2 63218  97.4294  63.5101 0003147   4.0327 356.0933 15.20496393 14639
TEVEL2-3
1 63219U 25052K   25169.63480247  .00009101  00000-0  41947-3 0  9991
2 63219  97.4292  63.4445 0003169   4.1965 355.9296 15.20488348 14621
TEVEL2-8
1 63237U 25052AD  25169.70743203  .00009562  00000-0  45590-3 0  9992
2 63237  97.4356  63.4270 0007779 357.8554   2.2646 15.19282383 14621
TEVEL2-9
1 63238U 25052AE  25169.64426840  .00008967  00000-0  42852-3 0  9997
2 63238  97.4358  63.3605 0007880 358.1201   2.0002 15.19218803 14610
TEVEL2-7
1 63239U 25052AF  25169.44882571  .00009311  00000-0  44531-3 0  9993
2 63239  97.4354  63.1620 0007911 358.6093   1.5118 15.19180904 14589
HYDRA-W
1 63490U 25052BL  25169.67554437  .00022379  00000-0  93258-3 0  9993
2 63490  97.4301  63.7120 0010886 351.6047   8.5006 15.23668896 14644
HADES-ICM (SO-125)
1 63492U 25052BN  25169.69309327  .00020464  00000-0  86443-3 0  9994
2 63492  97.4310  63.6954 0011416 355.2199   4.8927 15.23222709 14648
